This is the latest recevied weather packets stored in our database for station/object KC2TER. If no packets are shown the sender has not sent any weather packets the latest 10 day(s).
| Time | Temp. | Humidity | Pressure | Rain* | Wind** | Luminosity | Snow |
|---|---|---|---|---|---|---|---|
| 1778071563 | 18.89° C | 76% | 1010.4 hPa | 0 mm | - | 88 W/m² | - |
| 1778071261 | 18.33° C | 77% | 1010.4 hPa | 0 mm | - | 87 W/m² | - |
| 1778070958 | 18.33° C | 77% | 1010.2 hPa | 0 mm | - | 82 W/m² | - |
| 1778070657 | 18.89° C | 77% | 1010.1 hPa | 0 mm | - | 92 W/m² | - |
| 1778070353 | 18.33° C | 77% | 1010.2 hPa | 0 mm | - | 116 W/m² | - |
| 1778070051 | 18.33° C | 77% | 1010.5 hPa | 0 mm | - | 124 W/m² | - |
| 1778069748 | 18.33° C | 77% | 1010.3 hPa | 0 mm | - | 141 W/m² | - |
| 1778069444 | 18.33° C | 78% | 1010.3 hPa | 0 mm | - | 117 W/m² | - |
| 1778069143 | 18.33° C | 77% | 1010.3 hPa | 0 mm | - | 105 W/m² | - |
| 1778068840 | 18.33° C | 77% | 1010.4 hPa | 0 mm | - | 105 W/m² | - |
| 1778068538 | 18.33° C | 77% | 1010.3 hPa | 0 mm | - | 150 W/m² | - |
| 1778068236 | 18.33° C | 78% | 1010.5 hPa | 0 mm | - | 219 W/m² | - |
| 1778067933 | 17.78° C | 79% | 1010.4 hPa | 0 mm | - | 160 W/m² | - |
| 1778067631 | 17.78° C | 79% | 1010.8 hPa | 0 mm | - | 128 W/m² | - |
| 1778067329 | 17.78° C | 80% | 1010.7 hPa | 0 mm | - | 104 W/m² | - |
| 1778067026 | 17.22° C | 80% | 1010.6 hPa | 0 mm | - | 82 W/m² | - |
| 1778066722 | 17.22° C | 81% | 1010.6 hPa | 0 mm | - | 55 W/m² | - |
| 1778066420 | 17.22° C | 81% | 1010.7 hPa | 0 mm | - | 44 W/m² | - |
| 1778066118 | 17.22° C | 81% | 1010.6 hPa | 0 mm | - | 46 W/m² | - |
| 1778065815 | 17.22° C | 81% | 1010.6 hPa | 0 mm | - | 86 W/m² | - |
| 1778065512 | 16.67° C | 82% | 1010.6 hPa | 0 mm | - | 77 W/m² | - |
| 1778065209 | 16.67° C | 83% | 1010.4 hPa | 0 mm | - | 66 W/m² | - |
| 1778064905 | 16.67° C | 83% | 1010.6 hPa | 0 mm | - | 50 W/m² | - |
| 1778064603 | 16.67° C | 84% | 1010.5 hPa | 0 mm | - | 38 W/m² | - |
| 1778064301 | 16.67° C | 84% | 1010.6 hPa | 0 mm | - | 29 W/m² | - |
* Rain latest hour (hover to see other rain measurements)
** Current wind speed in m/s (hover to see current wind gust speed)